Regional Weather Roundup
Issued by NWS New Orleans/Baton Rouge, LA

Home | Current Version | Previous Version | Text Only | Print | Product List | Glossary On
Versions: 1 2 3 4 5 6 7 8 9 10 11 12 13 14 15 16 17 18 19 20 21 22 23 24 25 26 27 28
000
ASUS44 KLIX 091913
RWRLIX
NEW ORLEANS REGIONAL WEATHER ROUNDUP
NATIONAL WEATHER SERVICE NEW ORLEANS LA
100 PM CST FRI DEC 09 2016

NOTE: "FAIR" INDICATES FEW OR NO CLOUDS BELOW 12,000 FEET WITH NO
      SIGNIFICANT WEATHER AND/OR OBSTRUCTIONS TO VISIBILITY.
      SKY/WX - SKY CONDITION AND SIGNIFICANT WEATHER.
      TMP - AIR TEMPERATURE.     DP    - DEWPOINT TEMPERATURE.
      RH  - RELATIVE HUMIDITY.   PRES  - PRESSURE.
      HI  - HEAT INDEX.          WCI   - WIND CHILL INDEX.

*  THESE STATIONS ARE NOT NWS OR FAA STATIONS AND ARE NOT UNDER
   NWS QUALITY CONTROL.

LAZ038-040-048-061>063-065>067-069-092000-
SOUTHEAST LOUISIANA

CITY           SKY/WX    TMP DP  RH WIND       PRES   REMARKS
N.O. AUDUBON   NOT AVBL
N.O. INTL ARPT MOSUNNY   46  25  43 N9        30.48F
N.O. LAKEFRONT SUNNY     49  24  37 N7        30.49F
N.O. DOWNTOWN*   N/A     46  21  37 N8G17     30.49F
RESERVE*         N/A     50  19  29 N10       30.49F
SLIDELL        SUNNY     50  18  28 N14G21    30.47F
BATON ROUGE    SUNNY     50  19  29 N10       30.50F
BOOTHVILLE     SUNNY     46  35  65 N14G24    30.46F
BELLE CHASSE   MOSUNNY   50  24  36 N9        30.47F
BOGALUSA*        N/A     51  17  26 N13G21    30.50F
GALLIANO*      CLEAR     49  23  35 NE14      30.46F
NEW ROADS*       N/A     48  19  32 N6        30.51F
GONZALES*        N/A     49  19  30 N8        30.48F
HAMMOND*       SUNNY     50  18  27 N8        30.49F
HOUMA*         NOT AVBL
PORT FOURCHON* CLEAR     48  30  49 NE20G25   30.46F

$$

MSZ070-080>082-092000-
SOUTHERN MISSISSIPPI

CITY           SKY/WX    TMP DP  RH WIND       PRES   REMARKS
MCCOMB         SUNNY     47  14  26 N14       30.50F
GULFPORT       SUNNY     50  18  28 N10       30.46F
BILOXI         SUNNY     49  19  30 NE12      30.45F
PASCAGOULA     SUNNY     50  16  25 N13G23    30.45F
STENNIS ARPT*  SUNNY     48   7  18 N12       30.48F

$$

COASTAL OBSERVATIONS
LAKE AND NEARSHORE STATIONS

STATION/POSITION TIME  TEMP    WIND        PRES    WAVE
                       AIR SEA DIR/SP/G            HT/PER
                 (UTC) (F)     (DEG/KT/KT) (MB)    (FT/S)
PASCAGOULA       1842   49      20/  9/ 18 1030.8
WAVELAND YACHT   1842   46 53   20/ 12/ 15 1031.8
GRAND ISLE       1842   48 58   40/ 12/ 19 1031.4
SOUTHWEST PASS   1842           40/ 24/ 28   N/A
NEW CANAL        1842   44 57   20/  7/ 10 1031.6
SHELL BEACH      1842   44 56   10/ 12/ 15 1031.9

OFFSHORE STATIONS

STATION/POSITION TIME  TEMP    WIND        PRES    WAVE
                       AIR SEA DIR/SP/G            HT/PER
                 (UTC) (F)     (DEG/KT/KT) (MB)    (FT/S)
64 S DAUPHIN ISL 1850   52 74   20/ 17/ 23 1030.5    7/ 7

$$





USA.gov is the U.S. government's official web portal to all federal, state and local government web resources and services.